Location: Degersen
(52.2871°N, 9.5716°E)
Time: 21:23:39
(UTC+00:00)

SL-08 R/B - Pass Details

Date: 20 January 2026
Orbit: 666 x 730 km, 98.5° (Epoch: 16 February)

Event Time Altitude Azimuth Distance (km) Brightness Sun altitude
Rises 06:36:53 0° 169° (S) 3,139 7.2 -6.5°
Reaches altitude 10° 06:39:10 10° 171° (S) 2,224 6.4 -6.2°
Maximum altitude 06:44:03 72° 256° (WSW) 770 3.4 -5.5°
Drops below altitude 10° 06:48:58 10° 341° (NNW) 2,236 5.5 -4.8°
Sets 06:51:16 0° 344° (NNW) 3,157 6.3 -4.5°
